This is the latest recevied weather packets stored in our database for station/object OK1VCF-8. If no packets are shown the sender has not sent any weather packets the latest 10 day(s).
| Time | Temp. | Humidity | Pressure | Rain* | Wind** | Luminosity | Snow |
|---|---|---|---|---|---|---|---|
| 1777928661 | 18.89° C | 54% | 1012.5 hPa | - | - | - | - |
| 1777928223 | 18.89° C | 54% | 1012.4 hPa | - | - | - | - |
| 1777927784 | 18.89° C | 54% | 1012.6 hPa | - | - | - | - |
| 1777927344 | 18.89° C | 54% | 1012.6 hPa | - | - | - | - |
| 1777926907 | 18.33° C | 54% | 1012.5 hPa | - | - | - | - |
| 1777926469 | 18.33° C | 54% | 1012.6 hPa | - | - | - | - |
| 1777925868 | 18.33° C | 54% | 1012.6 hPa | - | - | - | - |
| 1777925430 | 18.33° C | 54% | 1012.7 hPa | - | - | - | - |
| 1777924992 | 17.78° C | 54% | 1012.6 hPa | - | - | - | - |
| 1777924552 | 17.78° C | 52% | 1012.6 hPa | - | - | - | - |
| 1777924115 | 18.33° C | 53% | 1012.6 hPa | - | - | - | - |
| 1777923677 | 18.33° C | 53% | 1012.5 hPa | - | - | - | - |
| 1777923238 | 18.89° C | 52% | 1012.6 hPa | - | - | - | - |
| 1777922801 | 18.89° C | 52% | 1012.6 hPa | - | - | - | - |
| 1777922362 | 18.89° C | 51% | 1012.4 hPa | - | - | - | - |
| 1777921924 | 18.89° C | 52% | 1012.5 hPa | - | - | - | - |
| 1777921487 | 18.89° C | 50% | 1012.5 hPa | - | - | - | - |
| 1777921046 | 19.44° C | 50% | 1012.4 hPa | - | - | - | - |
| 1777920607 | 20° C | 48% | 1012.2 hPa | - | - | - | - |
| 1777920170 | 20° C | 48% | 1012.2 hPa | - | - | - | - |
| 1777919731 | 20° C | 47% | 1012.2 hPa | - | - | - | - |
| 1777919128 | 20.56° C | 46% | 1012.2 hPa | - | - | - | - |
| 1777918690 | 21.11° C | 45% | 1012.2 hPa | - | - | - | - |
| 1777918252 | 21.11° C | 44% | 1012.2 hPa | - | - | - | - |
| 1777917814 | 21.11° C | 44% | 1012.2 hPa | - | - | - | - |
* Rain since midnight (hover to see other rain measurements)
** Current wind speed in m/s (hover to see current wind gust speed)